Time,TemperatureF,DewpointF,PressureIn,WindDirection,WindDirectionDegrees,WindSpeedMPH,WindSpeedGustMPH,Humidity,HourlyPrecipIn,Conditions,Clouds,dailyrainin,SolarRadiationWatts/m^2,SoftwareType,DateUTC
2013-11-24 00:00:00,18.9,8.1,30.75,East,90,5.0,10.0,62,0.00,,---,0.00,0.00,VWS V14.01,2013-11-24 06:00:00,
2013-11-24 00:02:00,18.9,7.7,30.75,East,80,4.0,8.0,61,0.00,,---,0.00,0.00,VWS V14.01,2013-11-24 06:02:00,
2013-11-24 00:07:00,18.9,7.7,30.75,East,91,5.0,9.0,61,0.00,,---,0.00,0.00,VWS V14.01,2013-11-24 06:07:00,
2013-11-24 00:12:00,18.9,7.7,30.75,East,82,5.0,9.0,61,0.00,,---,0.00,0.00,VWS V14.01,2013-11-24 06:12:00,
2013-11-24 00:17:00,18.9,7.7,30.74,ESE,105,4.0,9.0,61,0.00,,---,0.00,0.00,VWS V14.01,2013-11-24 06:17:00,
2013-11-24 00:22:00,18.8,7.6,30.74,East,97,5.0,9.0,61,0.00,,---,0.00,0.00,VWS V14.01,2013-11-24 06:22:00,
2013-11-24 00:27:00,18.8,7.9,30.74,East,88,3.0,9.0,62,0.00,,---,0.00,0.00,VWS V14.01,2013-11-24 06:27:00,
2013-11-24 00:30:00,18.6,7.8,30.74,East,82,5.0,9.0,62,0.00,,---,0.00,0.00,VWS V14.01,2013-11-24 06:30:00,
2013-11-24 00:32:00,18.6,7.8,30.74,East,98,4.0,7.0,62,0.00,,---,0.00,0.00,VWS V14.01,2013-11-24 06:32:00,
2013-11-24 00:37:00,18.6,7.8,30.74,East,97,6.0,8.0,62,0.00,,---,0.00,0.00,VWS V14.01,2013-11-24 06:37:00,
2013-11-24 00:42:00,18.4,7.9,30.74,East,84,3.0,8.0,63,0.00,,---,0.00,0.00,VWS V14.01,2013-11-24 06:42:00,
2013-11-24 00:47:00,18.3,7.8,30.74,East,96,4.0,8.0,63,0.00,,---,0.00,0.00,VWS V14.01,2013-11-24 06:47:00,
2013-11-24 00:52:00,18.3,7.8,30.74,East,98,5.0,8.0,63,0.00,,---,0.00,0.00,VWS V14.01,2013-11-24 06:52:00,
2013-11-24 00:57:00,18.1,8.0,30.73,ESE,115,7.0,8.0,64,0.00,,---,0.00,0.00,VWS V14.01,2013-11-24 06:57:00,
2013-11-24 01:00:00,18.0,7.9,30.73,ESE,115,5.0,8.0,64,0.00,,---,0.00,0.00,VWS V14.01,2013-11-24 07:00:00,
2013-11-24 01:02:00,18.0,7.9,30.73,ESE,115,4.0,7.0,64,0.00,,---,0.00,0.00,VWS V14.01,2013-11-24 07:02:00,
2013-11-24 01:07:00,17.8,8.0,30.73,ESE,115,5.0,7.0,65,0.00,,---,0.00,0.00,VWS V14.01,2013-11-24 07:07:00,
2013-11-24 01:12:00,17.7,7.9,30.72,ESE,114,6.0,7.0,65,0.00,,---,0.00,0.00,VWS V14.01,2013-11-24 07:12:00,
2013-11-24 01:17:00,17.7,8.3,30.72,ESE,113,5.0,7.0,66,0.00,,---,0.00,0.00,VWS V14.01,2013-11-24 07:17:00,
2013-11-24 01:22:00,17.5,8.1,30.72,ESE,113,4.0,7.0,66,0.00,,---,0.00,0.00,VWS V14.01,2013-11-24 07:22:00,
2013-11-24 01:27:00,17.5,8.1,30.71,ESE,113,5.0,7.0,66,0.00,,---,0.00,0.00,VWS V14.01,2013-11-24 07:27:00,
2013-11-24 01:30:00,17.5,8.1,30.71,ESE,113,4.0,7.0,66,0.00,,---,0.00,0.00,VWS V14.01,2013-11-24 07:30:00,
2013-11-24 01:32:00,17.3,8.2,30.71,ESE,112,2.0,6.0,67,0.00,,---,0.00,0.00,VWS V14.01,2013-11-24 07:32:00,
2013-11-24 01:37:00,17.3,8.2,30.71,East,94,2.0,6.0,67,0.00,,---,0.00,0.00,VWS V14.01,2013-11-24 07:37:00,
2013-11-24 01:42:00,17.3,8.2,30.71,East,94,5.0,6.0,67,0.00,,---,0.00,0.00,VWS V14.01,2013-11-24 07:42:00,
2013-11-24 01:47:00,17.2,8.1,30.71,East,94,4.0,7.0,67,0.00,,---,0.00,0.00,VWS V14.01,2013-11-24 07:47:00,
2013-11-24 01:52:00,17.2,8.1,30.71,East,94,2.0,7.0,67,0.00,,---,0.00,0.00,VWS V14.01,2013-11-24 07:52:00,
2013-11-24 01:57:00,17.2,8.1,30.71,East,92,5.0,7.0,67,0.00,,---,0.00,0.00,VWS V14.01,2013-11-24 07:57:00,
2013-11-24 02:00:00,17.2,8.1,30.71,East,92,1.0,7.0,67,0.00,,---,0.00,0.00,VWS V14.01,2013-11-24 08:00:00,
2013-11-24 02:02:00,17.2,8.1,30.71,East,92,2.0,5.0,67,0.00,,---,0.00,0.00,VWS V14.01,2013-11-24 08:02:00,
2013-11-24 02:07:00,17.2,7.8,30.72,East,97,6.0,7.0,66,0.00,,---,0.00,0.00,VWS V14.01,2013-11-24 08:07:00,
2013-11-24 02:12:00,17.2,7.8,30.73,ESE,113,4.0,7.0,66,0.00,,---,0.00,0.00,VWS V14.01,2013-11-24 08:12:00,
2013-11-24 02:17:00,17.2,8.1,30.73,SE,124,5.0,8.0,67,0.00,,---,0.00,0.00,VWS V14.01,2013-11-24 08:17:00,
2013-11-24 02:22:00,17.2,8.1,30.73,SE,124,2.0,8.0,67,0.00,,---,0.00,0.00,VWS V14.01,2013-11-24 08:22:00,
2013-11-24 02:27:00,17.2,7.8,30.73,SE,126,2.0,8.0,66,0.00,,---,0.00,0.00,VWS V14.01,2013-11-24 08:27:00,
2013-11-24 02:30:00,17.2,7.8,30.73,SE,126,2.0,8.0,66,0.00,,---,0.00,0.00,VWS V14.01,2013-11-24 08:30:00,
2013-11-24 02:32:00,17.3,7.6,30.73,SE,126,1.0,4.0,65,0.00,,---,0.00,0.00,VWS V14.01,2013-11-24 08:32:00,
2013-11-24 02:37:00,17.3,7.6,30.73,SE,126,4.0,4.0,65,0.00,,---,0.00,0.00,VWS V14.01,2013-11-24 08:37:00,
2013-11-24 02:42:00,17.3,7.6,30.73,SE,126,4.0,5.0,65,0.00,,---,0.00,0.00,VWS V14.01,2013-11-24 08:42:00,
2013-11-24 02:47:00,17.3,7.6,30.73,SE,126,2.0,6.0,65,0.00,,---,0.00,0.00,VWS V14.01,2013-11-24 08:47:00,
2013-11-24 02:52:00,17.3,7.2,30.73,SE,126,5.0,6.0,64,0.00,,---,0.00,0.00,VWS V14.01,2013-11-24 08:52:00,
2013-11-24 02:57:00,17.3,7.2,30.73,SE,133,4.0,8.0,64,0.00,,---,0.00,0.00,VWS V14.01,2013-11-24 08:57:00,
2013-11-24 03:00:00,17.3,7.2,30.73,SE,133,4.0,8.0,64,0.00,,---,0.00,0.00,VWS V14.01,2013-11-24 09:00:00,
2013-11-24 03:02:00,17.3,7.2,30.73,SE,133,4.0,5.0,64,0.00,,---,0.00,0.00,VWS V14.01,2013-11-24 09:02:00,
2013-11-24 03:07:00,17.3,6.9,30.73,SE,133,2.0,5.0,63,0.00,,---,0.00,0.00,VWS V14.01,2013-11-24 09:07:00,
2013-11-24 03:12:00,17.3,6.9,30.72,SE,133,1.0,5.0,63,0.00,,---,0.00,0.00,VWS V14.01,2013-11-24 09:12:00,
2013-11-24 03:17:00,17.5,7.1,30.72,SE,133,0.0,5.0,63,0.00,,---,0.00,0.00,VWS V14.01,2013-11-24 09:17:00,
2013-11-24 03:22:00,17.5,7.1,30.72,SE,133,0.0,5.0,63,0.00,,---,0.00,0.00,VWS V14.01,2013-11-24 09:22:00,
2013-11-24 03:27:00,17.5,7.4,30.73,SE,133,2.0,5.0,64,0.00,,---,0.00,0.00,VWS V14.01,2013-11-24 09:27:00,
2013-11-24 03:30:00,17.5,7.4,30.72,SE,133,1.0,5.0,64,0.00,,---,0.00,0.00,VWS V14.01,2013-11-24 09:30:00,
2013-11-24 03:32:00,17.5,7.4,30.72,SE,133,0.0,1.0,64,0.00,,---,0.00,0.00,VWS V14.01,2013-11-24 09:32:00,
2013-11-24 03:37:00,17.7,7.6,30.72,SE,133,2.0,2.0,64,0.00,,---,0.00,0.00,VWS V14.01,2013-11-24 09:37:00,
2013-11-24 03:42:00,17.7,7.9,30.73,SE,133,2.0,4.0,65,0.00,,---,0.00,0.00,VWS V14.01,2013-11-24 09:42:00,
2013-11-24 03:47:00,17.5,7.8,30.73,SE,133,5.0,5.0,65,0.00,,---,0.00,0.00,VWS V14.01,2013-11-24 09:47:00,
2013-11-24 03:52:00,17.5,7.4,30.73,SE,134,5.0,5.0,64,0.00,,---,0.00,0.00,VWS V14.01,2013-11-24 09:52:00,
2013-11-24 03:57:00,17.5,7.4,30.73,SE,134,2.0,5.0,64,0.00,,---,0.00,0.00,VWS V14.01,2013-11-24 09:57:00,
2013-11-24 04:00:00,17.5,7.4,30.73,SE,134,2.0,5.0,64,0.00,,---,0.00,0.00,VWS V14.01,2013-11-24 10:00:00,
2013-11-24 04:02:00,17.5,7.4,30.73,SE,134,5.0,5.0,64,0.00,,---,0.00,0.00,VWS V14.01,2013-11-24 10:02:00,
2013-11-24 04:07:00,17.5,7.4,30.72,SE,138,2.0,6.0,64,0.00,,---,0.00,0.00,VWS V14.01,2013-11-24 10:07:00,
2013-11-24 04:12:00,17.3,7.2,30.73,SE,138,2.0,6.0,64,0.00,,---,0.00,0.00,VWS V14.01,2013-11-24 10:12:00,
2013-11-24 04:17:00,17.3,7.2,30.73,SE,138,5.0,6.0,64,0.00,,---,0.00,0.00,VWS V14.01,2013-11-24 10:17:00,
2013-11-24 04:22:00,17.3,7.2,30.72,SE,138,5.0,6.0,64,0.00,,---,0.00,0.00,VWS V14.01,2013-11-24 10:22:00,
2013-11-24 04:27:00,17.3,7.2,30.72,SE,138,7.0,7.0,64,0.00,,---,0.00,0.00,VWS V14.01,2013-11-24 10:27:00,
2013-11-24 04:30:00,17.3,7.2,30.72,SE,138,4.0,7.0,64,0.00,,---,0.00,0.00,VWS V14.01,2013-11-24 10:30:00,
2013-11-24 04:32:00,17.3,7.6,30.72,SE,138,2.0,6.0,65,0.00,,---,0.00,0.00,VWS V14.01,2013-11-24 10:32:00,
2013-11-24 04:37:00,17.3,7.6,30.72,SSE,162,2.0,7.0,65,0.00,,---,0.00,0.00,VWS V14.01,2013-11-24 10:37:00,
2013-11-24 04:42:00,17.3,7.6,30.71,SSE,162,4.0,7.0,65,0.00,,---,0.00,0.00,VWS V14.01,2013-11-24 10:42:00,
2013-11-24 04:47:00,17.3,7.6,30.71,SSE,163,2.0,7.0,65,0.00,,---,0.00,0.00,VWS V14.01,2013-11-24 10:47:00,
2013-11-24 04:52:00,17.2,7.8,30.71,SSE,163,4.0,7.0,66,0.00,,---,0.00,0.00,VWS V14.01,2013-11-24 10:52:00,
2013-11-24 04:57:00,17.2,7.8,30.71,SSE,163,6.0,7.0,66,0.00,,---,0.00,0.00,VWS V14.01,2013-11-24 10:57:00,
2013-11-24 05:00:00,17.2,7.8,30.71,SSE,162,4.0,7.0,66,0.00,,---,0.00,0.00,VWS V14.01,2013-11-24 11:00:00,
2013-11-24 05:02:00,17.2,7.8,30.71,SSE,162,2.0,5.0,66,0.00,,---,0.00,0.00,VWS V14.01,2013-11-24 11:02:00,
2013-11-24 05:07:00,17.2,7.8,30.71,SSE,162,2.0,6.0,66,0.00,,---,0.00,0.00,VWS V14.01,2013-11-24 11:07:00,
2013-11-24 05:12:00,17.2,8.1,30.71,SSE,162,2.0,6.0,67,0.00,,---,0.00,0.00,VWS V14.01,2013-11-24 11:12:00,
2013-11-24 05:17:00,17.2,8.1,30.71,SSE,163,5.0,6.0,67,0.00,,---,0.00,0.00,VWS V14.01,2013-11-24 11:17:00,
2013-11-24 05:22:00,17.2,8.1,30.71,SSE,163,0.0,6.0,67,0.00,,---,0.00,0.00,VWS V14.01,2013-11-24 11:22:00,
2013-11-24 05:27:00,17.2,8.1,30.70,SSE,163,4.0,6.0,67,0.00,,---,0.00,0.00,VWS V14.01,2013-11-24 11:27:00,
2013-11-24 05:30:00,17.2,8.1,30.70,SSE,163,5.0,6.0,67,0.00,,---,0.00,0.00,VWS V14.01,2013-11-24 11:30:00,
2013-11-24 05:32:00,17.2,8.1,30.71,SSE,163,2.0,5.0,67,0.00,,---,0.00,0.00,VWS V14.01,2013-11-24 11:32:00,
2013-11-24 05:37:00,17.2,8.1,30.71,SSE,163,1.0,5.0,67,0.00,,---,0.00,0.00,VWS V14.01,2013-11-24 11:37:00,
2013-11-24 05:42:00,17.2,8.5,30.70,SSE,163,4.0,6.0,68,0.00,,---,0.00,0.00,VWS V14.01,2013-11-24 11:42:00,
2013-11-24 05:47:00,17.0,8.3,30.69,SSE,161,5.0,7.0,68,0.00,,---,0.00,0.00,VWS V14.01,2013-11-24 11:47:00,
2013-11-24 05:52:00,17.0,8.3,30.69,SSE,161,5.0,7.0,68,0.00,,---,0.00,0.00,VWS V14.01,2013-11-24 11:52:00,
2013-11-24 05:57:00,17.0,8.3,30.70,SSE,161,6.0,7.0,68,0.00,,---,0.00,0.00,VWS V14.01,2013-11-24 11:57:00,
2013-11-24 06:00:00,17.0,8.3,30.69,SSE,161,4.0,8.0,68,0.00,,---,0.00,0.00,VWS V14.01,2013-11-24 12:00:00,
2013-11-24 06:02:00,17.0,8.3,30.69,SSE,160,6.0,7.0,68,0.00,,---,0.00,0.00,VWS V14.01,2013-11-24 12:02:00,
2013-11-24 06:07:00,17.0,8.3,30.69,SSE,160,6.0,7.0,68,0.00,,---,0.00,0.00,VWS V14.01,2013-11-24 12:07:00,
2013-11-24 06:12:00,17.0,8.3,30.69,SSE,160,5.0,7.0,68,0.00,,---,0.00,0.00,VWS V14.01,2013-11-24 12:12:00,
2013-11-24 06:17:00,17.2,8.8,30.69,SSE,160,5.0,7.0,69,0.00,,---,0.00,0.00,VWS V14.01,2013-11-24 12:17:00,
2013-11-24 06:22:00,17.2,8.5,30.69,SSE,156,5.0,8.0,68,0.00,,---,0.00,0.00,VWS V14.01,2013-11-24 12:22:00,
2013-11-24 06:27:00,17.2,8.5,30.69,SSE,156,5.0,8.0,68,0.00,,---,0.00,0.00,VWS V14.01,2013-11-24 12:27:00,
2013-11-24 06:30:00,17.2,8.5,30.69,SSE,156,5.0,9.0,68,0.00,,---,0.00,0.00,VWS V14.01,2013-11-24 12:30:00,
2013-11-24 06:32:00,17.2,8.5,30.69,SSE,156,4.0,7.0,68,0.00,,---,0.00,0.00,VWS V14.01,2013-11-24 12:32:00,
2013-11-24 06:37:00,17.2,8.5,30.68,SSE,158,8.0,8.0,68,0.00,,---,0.00,0.00,VWS V14.01,2013-11-24 12:37:00,
2013-11-24 06:42:00,17.0,8.3,30.68,SSE,156,5.0,8.0,68,0.00,,---,0.00,0.00,VWS V14.01,2013-11-24 12:42:00,
2013-11-24 06:47:00,17.0,8.3,30.68,SSE,156,6.0,8.0,68,0.00,,---,0.00,0.00,VWS V14.01,2013-11-24 12:47:00,
2013-11-24 06:52:00,17.0,8.3,30.68,SSE,156,7.0,8.0,68,0.00,,---,0.00,0.00,VWS V14.01,2013-11-24 12:52:00,
2013-11-24 06:57:00,17.0,8.3,30.68,SSE,156,6.0,8.0,68,0.00,,---,0.00,0.00,VWS V14.01,2013-11-24 12:57:00,
2013-11-24 07:00:00,17.2,8.5,30.68,SSE,156,4.0,8.0,68,0.00,,---,0.00,0.00,VWS V14.01,2013-11-24 13:00:00,
2013-11-24 07:02:00,17.2,8.5,30.67,SSE,156,5.0,7.0,68,0.00,,---,0.00,0.00,VWS V14.01,2013-11-24 13:02:00,
2013-11-24 07:07:00,17.2,8.5,30.67,SSE,156,7.0,8.0,68,0.00,,---,0.00,0.00,VWS V14.01,2013-11-24 13:07:00,
2013-11-24 07:12:00,17.2,8.5,30.67,SSE,149,7.0,8.0,68,0.00,,---,0.00,0.00,VWS V14.01,2013-11-24 13:12:00,
2013-11-24 07:17:00,17.2,8.8,30.67,SE,143,7.0,9.0,69,0.00,,---,0.00,0.00,VWS V14.01,2013-11-24 13:17:00,
2013-11-24 07:22:00,17.3,8.9,30.67,SSE,152,7.0,9.0,69,0.00,,---,0.00,0.00,VWS V14.01,2013-11-24 13:22:00,
2013-11-24 07:27:00,17.3,8.9,30.67,SSE,159,6.0,9.0,69,0.00,,---,0.00,0.00,VWS V14.01,2013-11-24 13:27:00,
2013-11-24 07:30:00,17.3,8.9,30.67,South,169,4.0,9.0,69,0.00,,---,0.00,0.00,VWS V14.01,2013-11-24 13:30:00,
2013-11-24 07:32:00,17.3,8.9,30.67,South,175,6.0,9.0,69,0.00,,---,0.00,7.00,VWS V14.01,2013-11-24 13:32:00,
2013-11-24 07:37:00,17.3,8.9,30.67,SSE,167,10.0,11.0,69,0.00,,---,0.00,11.00,VWS V14.01,2013-11-24 13:37:00,
2013-11-24 07:42:00,17.3,8.9,30.67,SSE,162,7.0,11.0,69,0.00,,---,0.00,14.00,VWS V14.01,2013-11-24 13:42:00,
2013-11-24 07:47:00,17.3,8.9,30.67,SSE,167,4.0,11.0,69,0.00,,---,0.00,18.00,VWS V14.01,2013-11-24 13:47:00,
2013-11-24 07:52:00,17.3,9.2,30.67,South,187,5.0,11.0,70,0.00,,---,0.00,23.00,VWS V14.01,2013-11-24 13:52:00,
2013-11-24 07:57:00,17.3,9.2,30.67,SSE,163,4.0,11.0,70,0.00,,---,0.00,28.00,VWS V14.01,2013-11-24 13:57:00,
2013-11-24 08:00:00,17.3,9.2,30.67,SSE,168,4.0,11.0,70,0.00,,---,0.00,28.00,VWS V14.01,2013-11-24 14:00:00,
2013-11-24 08:02:00,17.3,9.5,30.67,South,184,6.0,9.0,71,0.00,,---,0.00,30.00,VWS V14.01,2013-11-24 14:02:00,
2013-11-24 08:07:00,17.5,9.7,30.68,South,178,5.0,9.0,71,0.00,,---,0.00,33.00,VWS V14.01,2013-11-24 14:07:00,
2013-11-24 08:12:00,17.5,9.7,30.67,South,183,2.0,9.0,71,0.00,,---,0.00,35.00,VWS V14.01,2013-11-24 14:12:00,
2013-11-24 08:17:00,17.5,9.7,30.67,South,178,7.0,9.0,71,0.00,,---,0.00,35.00,VWS V14.01,2013-11-24 14:17:00,
2013-11-24 08:22:00,17.5,9.7,30.67,SSE,157,9.0,10.0,71,0.00,,---,0.00,40.00,VWS V14.01,2013-11-24 14:22:00,
2013-11-24 08:27:00,17.7,9.9,30.67,SSE,164,5.0,13.0,71,0.00,,---,0.00,44.00,VWS V14.01,2013-11-24 14:27:00,
2013-11-24 08:30:00,17.7,9.9,30.66,SSE,161,6.0,13.0,71,0.00,,---,0.00,46.00,VWS V14.01,2013-11-24 14:30:00,
2013-11-24 08:32:00,17.8,9.7,30.67,South,182,10.0,11.0,70,0.00,,---,0.00,47.00,VWS V14.01,2013-11-24 14:32:00,
2013-11-24 08:37:00,18.0,9.6,30.66,South,180,5.0,11.0,69,0.00,,---,0.00,49.00,VWS V14.01,2013-11-24 14:37:00,
2013-11-24 08:42:00,18.1,9.7,30.66,South,190,7.0,11.0,69,0.00,,---,0.00,54.00,VWS V14.01,2013-11-24 14:42:00,
2013-11-24 08:47:00,18.3,9.2,30.66,SSE,167,9.0,12.0,67,0.00,,---,0.00,60.00,VWS V14.01,2013-11-24 14:47:00,
2013-11-24 08:52:00,18.4,9.3,30.66,South,184,2.0,12.0,67,0.00,,---,0.00,67.00,VWS V14.01,2013-11-24 14:52:00,
2013-11-24 08:57:00,18.6,8.8,30.65,South,176,9.0,14.0,65,0.00,,---,0.00,72.00,VWS V14.01,2013-11-24 14:57:00,
2013-11-24 09:00:00,18.6,8.5,30.66,South,177,6.0,14.0,64,0.00,,---,0.00,76.00,VWS V14.01,2013-11-24 15:00:00,
2013-11-24 09:02:00,18.6,8.8,30.66,SSE,157,5.0,9.0,65,0.00,,---,0.00,79.00,VWS V14.01,2013-11-24 15:02:00,
2013-11-24 09:07:00,18.8,8.3,30.65,SSE,166,6.0,14.0,63,0.00,,---,0.00,86.00,VWS V14.01,2013-11-24 15:07:00,
2013-11-24 09:12:00,18.9,8.4,30.65,South,171,12.0,14.0,63,0.00,,---,0.00,91.00,VWS V14.01,2013-11-24 15:12:00,
2013-11-24 09:17:00,19.1,8.6,30.64,SE,145,10.0,14.0,63,0.00,,---,0.00,100.00,VWS V14.01,2013-11-24 15:17:00,
2013-11-24 09:22:00,19.2,8.3,30.64,South,169,7.0,14.0,62,0.00,,---,0.00,111.00,VWS V14.01,2013-11-24 15:22:00,
2013-11-24 09:27:00,19.4,8.2,30.64,SSE,164,8.0,14.0,61,0.00,,---,0.00,125.00,VWS V14.01,2013-11-24 15:27:00,
2013-11-24 09:30:00,19.5,8.6,30.64,South,174,4.0,14.0,62,0.00,,---,0.00,135.00,VWS V14.01,2013-11-24 15:30:00,
2013-11-24 09:32:00,19.7,8.4,30.64,SSE,157,7.0,9.0,61,0.00,,---,0.00,144.00,VWS V14.01,2013-11-24 15:32:00,
2013-11-24 09:37:00,20.2,8.9,30.64,South,170,8.0,11.0,61,0.00,,---,0.00,169.00,VWS V14.01,2013-11-24 15:37:00,
2013-11-24 09:42:00,20.3,8.6,30.64,South,188,4.0,11.0,60,0.00,,---,0.00,169.00,VWS V14.01,2013-11-24 15:42:00,
2013-11-24 09:47:00,20.3,8.3,30.64,SSE,166,8.0,11.0,59,0.00,,---,0.00,163.00,VWS V14.01,2013-11-24 15:47:00,
2013-11-24 09:52:00,20.5,8.5,30.64,SE,139,8.0,13.0,59,0.00,,---,0.00,165.00,VWS V14.01,2013-11-24 15:52:00,
2013-11-24 09:57:00,20.5,8.5,30.64,SSE,155,6.0,13.0,59,0.00,,---,0.00,162.00,VWS V14.01,2013-11-24 15:57:00,
2013-11-24 10:00:00,20.6,8.6,30.64,SSE,166,7.0,13.0,59,0.00,,---,0.00,162.00,VWS V14.01,2013-11-24 16:00:00,
2013-11-24 10:02:00,21.0,9.3,30.64,South,169,8.0,11.0,60,0.00,,---,0.00,156.00,VWS V14.01,2013-11-24 16:02:00,
2013-11-24 10:07:00,21.4,8.9,30.63,SSE,167,7.0,11.0,58,0.00,,---,0.00,155.00,VWS V14.01,2013-11-24 16:07:00,
2013-11-24 10:12:00,21.4,8.9,30.63,South,190,8.0,11.0,58,0.00,,---,0.00,158.00,VWS V14.01,2013-11-24 16:12:00,
2013-11-24 10:17:00,21.6,9.1,30.63,SSE,157,8.0,11.0,58,0.00,,---,0.00,148.00,VWS V14.01,2013-11-24 16:17:00,
2013-11-24 10:22:00,21.8,9.3,30.62,SE,140,8.0,12.0,58,0.00,,---,0.00,162.00,VWS V14.01,2013-11-24 16:22:00,
2013-11-24 10:27:00,21.9,9.4,30.62,SE,142,8.0,12.0,58,0.00,,---,0.00,176.00,VWS V14.01,2013-11-24 16:27:00,
2013-11-24 10:30:00,22.1,9.6,30.62,SSE,148,11.0,14.0,58,0.00,,---,0.00,193.00,VWS V14.01,2013-11-24 16:30:00,
2013-11-24 10:32:00,21.9,9.0,30.62,SSE,148,13.0,13.0,57,0.00,,---,0.00,188.00,VWS V14.01,2013-11-24 16:32:00,
2013-11-24 10:37:00,22.2,9.7,30.61,SE,136,13.0,14.0,58,0.00,,---,0.00,190.00,VWS V14.01,2013-11-24 16:37:00,
2013-11-24 10:42:00,22.4,9.1,30.61,SSE,165,9.0,14.0,56,0.00,,---,0.00,197.00,VWS V14.01,2013-11-24 16:42:00,
2013-11-24 10:47:00,22.5,8.8,30.61,South,175,9.0,14.0,55,0.00,,---,0.00,207.00,VWS V14.01,2013-11-24 16:47:00,
2013-11-24 10:52:00,22.7,9.0,30.61,SE,138,8.0,14.0,55,0.00,,---,0.00,237.00,VWS V14.01,2013-11-24 16:52:00,
2013-11-24 10:57:00,23.0,8.9,30.60,SE,134,11.0,14.0,54,0.00,,---,0.00,230.00,VWS V14.01,2013-11-24 16:57:00,
2013-11-24 11:00:00,23.2,9.4,30.60,SSE,163,4.0,14.0,55,0.00,,---,0.00,237.00,VWS V14.01,2013-11-24 17:00:00,
2013-11-24 11:02:00,23.6,8.6,30.60,SSE,161,8.0,12.0,52,0.00,,---,0.00,227.00,VWS V14.01,2013-11-24 17:02:00,
2013-11-24 11:07:00,23.6,9.0,30.60,SSE,157,7.0,14.0,53,0.00,,---,0.00,213.00,VWS V14.01,2013-11-24 17:07:00,
2013-11-24 11:12:00,23.6,9.0,30.60,SSE,150,10.0,14.0,53,0.00,,---,0.00,209.00,VWS V14.01,2013-11-24 17:12:00,
2013-11-24 11:17:00,23.8,9.6,30.60,South,180,13.0,14.0,54,0.00,,---,0.00,192.00,VWS V14.01,2013-11-24 17:17:00,
2013-11-24 11:22:00,23.9,8.9,30.60,South,184,9.0,14.0,52,0.00,,---,0.00,176.00,VWS V14.01,2013-11-24 17:22:00,
2013-11-24 11:27:00,24.4,9.3,30.59,SSE,162,8.0,14.0,52,0.00,,---,0.00,185.00,VWS V14.01,2013-11-24 17:27:00,
2013-11-24 11:30:00,24.4,8.4,30.59,SSW,192,7.0,14.0,50,0.00,,---,0.00,218.00,VWS V14.01,2013-11-24 17:30:00,
2013-11-24 11:32:00,24.7,8.7,30.59,South,185,10.0,11.0,50,0.00,,---,0.00,169.00,VWS V14.01,2013-11-24 17:32:00,
2013-11-24 11:37:00,24.7,7.8,30.59,South,182,9.0,13.0,48,0.00,,---,0.00,162.00,VWS V14.01,2013-11-24 17:37:00,
2013-11-24 11:42:00,24.8,7.9,30.58,South,171,8.0,13.0,48,0.00,,---,0.00,149.00,VWS V14.01,2013-11-24 17:42:00,
2013-11-24 11:47:00,24.8,8.8,30.58,South,178,2.0,13.0,50,0.00,,---,0.00,141.00,VWS V14.01,2013-11-24 17:47:00,
2013-11-24 11:52:00,25.0,8.1,30.57,South,182,5.0,13.0,48,0.00,,---,0.00,135.00,VWS V14.01,2013-11-24 17:52:00,
2013-11-24 11:57:00,25.1,8.2,30.57,SSE,155,5.0,13.0,48,0.00,,---,0.00,116.00,VWS V14.01,2013-11-24 17:57:00,
2013-11-24 12:00:00,25.3,7.9,30.57,South,171,10.0,13.0,47,0.00,,---,0.00,118.00,VWS V14.01,2013-11-24 18:00:00,
2013-11-24 12:02:00,25.4,8.0,30.56,SSE,166,9.0,12.0,47,0.00,,---,0.00,113.00,VWS V14.01,2013-11-24 18:02:00,
2013-11-24 12:07:00,25.6,7.7,30.56,South,171,10.0,13.0,46,0.00,,---,0.00,116.00,VWS V14.01,2013-11-24 18:07:00,
2013-11-24 12:12:00,25.7,7.3,30.56,SSE,163,13.0,14.0,45,0.00,,---,0.00,102.00,VWS V14.01,2013-11-24 18:12:00,
2013-11-24 12:17:00,25.7,6.8,30.55,SSE,151,12.0,14.0,44,0.00,,---,0.00,90.00,VWS V14.01,2013-11-24 18:17:00,
2013-11-24 12:22:00,25.7,6.8,30.55,SSE,155,11.0,16.0,44,0.00,,---,0.00,79.00,VWS V14.01,2013-11-24 18:22:00,
2013-11-24 12:27:00,25.7,6.8,30.54,South,175,12.0,16.0,44,0.00,,---,0.00,86.00,VWS V14.01,2013-11-24 18:27:00,
2013-11-24 12:30:00,25.8,6.9,30.54,SSE,157,10.0,16.0,44,0.00,,---,0.00,91.00,VWS V14.01,2013-11-24 18:30:00,
2013-11-24 12:32:00,26.0,7.6,30.54,South,186,6.0,12.0,45,0.00,,---,0.00,93.00,VWS V14.01,2013-11-24 18:32:00,
2013-11-24 12:37:00,26.1,7.2,30.53,SSE,163,15.0,15.0,44,0.00,,---,0.00,84.00,VWS V14.01,2013-11-24 18:37:00,
2013-11-24 12:42:00,26.1,7.7,30.53,SSE,155,8.0,15.0,45,0.00,,---,0.00,79.00,VWS V14.01,2013-11-24 18:42:00,
2013-11-24 12:47:00,26.3,7.4,30.53,South,190,4.0,15.0,44,0.00,,---,0.00,74.00,VWS V14.01,2013-11-24 18:47:00,
2013-11-24 12:52:00,26.3,5.8,30.53,SSE,165,11.0,15.0,41,0.00,,---,0.00,69.00,VWS V14.01,2013-11-24 18:52:00,
2013-11-24 12:57:00,26.4,5.9,30.52,South,173,9.0,15.0,41,0.00,,---,0.00,70.00,VWS V14.01,2013-11-24 18:57:00,
2013-11-24 13:00:00,26.4,5.9,30.52,South,177,11.0,15.0,41,0.00,,---,0.00,72.00,VWS V14.01,2013-11-24 19:00:00,
2013-11-24 13:02:00,26.4,5.9,30.52,SSW,204,5.0,11.0,41,0.00,,---,0.00,74.00,VWS V14.01,2013-11-24 19:02:00,
2013-11-24 13:07:00,26.3,4.2,30.51,South,173,11.0,16.0,38,0.00,,---,0.00,72.00,VWS V14.01,2013-11-24 19:07:00,
2013-11-24 13:12:00,26.4,4.8,30.51,South,171,14.0,16.0,39,0.00,,---,0.00,70.00,VWS V14.01,2013-11-24 19:12:00,
2013-11-24 13:17:00,26.4,5.4,30.51,SSE,162,6.0,16.0,40,0.00,,---,0.00,77.00,VWS V14.01,2013-11-24 19:17:00,
2013-11-24 13:22:00,26.7,5.1,30.51,South,174,9.0,16.0,39,0.00,,---,0.00,91.00,VWS V14.01,2013-11-24 19:22:00,
2013-11-24 13:27:00,26.7,5.1,30.50,SSE,167,9.0,16.0,39,0.00,,---,0.00,79.00,VWS V14.01,2013-11-24 19:27:00,
2013-11-24 13:30:00,26.7,5.1,30.50,South,190,5.0,16.0,39,0.00,,---,0.00,72.00,VWS V14.01,2013-11-24 19:30:00,
2013-11-24 13:32:00,26.7,5.1,30.50,South,190,9.0,13.0,39,0.00,,---,0.00,72.00,VWS V14.01,2013-11-24 19:32:00,
2013-11-24 13:37:00,26.7,4.5,30.50,SSE,162,7.0,15.0,38,0.00,,---,0.00,76.00,VWS V14.01,2013-11-24 19:37:00,
2013-11-24 13:42:00,26.9,4.7,30.49,SE,144,7.0,15.0,38,0.00,,---,0.00,72.00,VWS V14.01,2013-11-24 19:42:00,
2013-11-24 13:47:00,26.7,4.5,30.49,SSE,152,8.0,15.0,38,0.00,,---,0.00,81.00,VWS V14.01,2013-11-24 19:47:00,
2013-11-24 13:52:00,27.0,4.2,30.49,SSE,166,11.0,15.0,37,0.00,,---,0.00,72.00,VWS V14.01,2013-11-24 19:52:00,
2013-11-24 13:57:00,27.2,4.4,30.49,SSE,160,11.0,15.0,37,0.00,,---,0.00,74.00,VWS V14.01,2013-11-24 19:57:00,
2013-11-24 14:00:00,27.2,4.4,30.49,SSE,164,5.0,15.0,37,0.00,,---,0.00,72.00,VWS V14.01,2013-11-24 20:00:00,
2013-11-24 14:02:00,27.3,5.1,30.49,South,188,1.0,12.0,38,0.00,,---,0.00,67.00,VWS V14.01,2013-11-24 20:02:00,
2013-11-24 14:07:00,27.5,4.7,30.48,SSE,154,9.0,13.0,37,0.00,,---,0.00,62.00,VWS V14.01,2013-11-24 20:07:00,
2013-11-24 14:12:00,27.6,3.5,30.48,South,171,11.0,15.0,35,0.00,,---,0.00,63.00,VWS V14.01,2013-11-24 20:12:00,
2013-11-24 14:17:00,27.8,3.7,30.48,SSE,152,9.0,15.0,35,0.00,,---,0.00,69.00,VWS V14.01,2013-11-24 20:17:00,
2013-11-24 14:22:00,27.8,3.7,30.47,South,188,7.0,15.0,35,0.00,,---,0.00,67.00,VWS V14.01,2013-11-24 20:22:00,
2013-11-24 14:27:00,27.8,3.7,30.47,SSE,166,8.0,15.0,35,0.00,,---,0.00,65.00,VWS V14.01,2013-11-24 20:27:00,
2013-11-24 14:30:00,27.8,3.7,30.47,SSW,205,5.0,15.0,35,0.00,,---,0.00,65.00,VWS V14.01,2013-11-24 20:30:00,
2013-11-24 14:32:00,27.8,3.1,30.47,South,169,11.0,14.0,34,0.00,,---,0.00,67.00,VWS V14.01,2013-11-24 20:32:00,
2013-11-24 14:37:00,27.8,3.1,30.47,SSW,196,7.0,14.0,34,0.00,,---,0.00,86.00,VWS V14.01,2013-11-24 20:37:00,
2013-11-24 14:42:00,27.9,3.2,30.46,South,171,10.0,14.0,34,0.00,,---,0.00,104.00,VWS V14.01,2013-11-24 20:42:00,
2013-11-24 14:47:00,28.1,3.4,30.46,SE,145,8.0,14.0,34,0.00,,---,0.00,91.00,VWS V14.01,2013-11-24 20:47:00,
2013-11-24 14:52:00,28.2,4.1,30.46,SSE,168,7.0,15.0,35,0.00,,---,0.00,100.00,VWS V14.01,2013-11-24 20:52:00,
2013-11-24 14:57:00,28.5,4.3,30.46,South,172,7.0,15.0,35,0.00,,---,0.00,98.00,VWS V14.01,2013-11-24 20:57:00,
2013-11-24 15:00:00,28.7,3.9,30.46,South,182,12.0,15.0,34,0.00,,---,0.00,95.00,VWS V14.01,2013-11-24 21:00:00,
2013-11-24 15:02:00,28.7,3.9,30.46,SW,214,9.0,11.0,34,0.00,,---,0.00,79.00,VWS V14.01,2013-11-24 21:02:00,
2013-11-24 15:07:00,28.5,3.7,30.45,South,183,14.0,14.0,34,0.00,,---,0.00,70.00,VWS V14.01,2013-11-24 21:07:00,
2013-11-24 15:12:00,28.2,3.5,30.45,South,173,17.0,17.0,34,0.00,,---,0.00,65.00,VWS V14.01,2013-11-24 21:12:00,
2013-11-24 15:17:00,28.2,4.1,30.45,South,186,14.0,17.0,35,0.00,,---,0.00,76.00,VWS V14.01,2013-11-24 21:17:00,
2013-11-24 15:22:00,28.2,4.1,30.45,South,184,16.0,18.0,35,0.00,,---,0.00,98.00,VWS V14.01,2013-11-24 21:22:00,
2013-11-24 15:27:00,28.4,4.9,30.45,SSW,198,17.0,18.0,36,0.00,,---,0.00,141.00,VWS V14.01,2013-11-24 21:27:00,
2013-11-24 15:30:00,28.4,4.9,30.45,South,188,17.0,19.0,36,0.00,,---,0.00,125.00,VWS V14.01,2013-11-24 21:30:00,
2013-11-24 15:32:00,28.5,5.0,30.45,SSW,201,6.0,17.0,36,0.00,,---,0.00,93.00,VWS V14.01,2013-11-24 21:32:00,
2013-11-24 15:37:00,28.7,5.1,30.44,South,183,3.0,17.0,36,0.00,,---,0.00,77.00,VWS V14.01,2013-11-24 21:37:00,
2013-11-24 15:42:00,28.7,4.5,30.44,SSW,209,6.0,17.0,35,0.00,,---,0.00,63.00,VWS V14.01,2013-11-24 21:42:00,
2013-11-24 15:47:00,28.7,3.9,30.44,SSW,204,4.0,18.0,34,0.00,,---,0.00,60.00,VWS V14.01,2013-11-24 21:47:00,
2013-11-24 15:52:00,28.8,3.3,30.44,South,178,10.0,18.0,33,0.00,,---,0.00,54.00,VWS V14.01,2013-11-24 21:52:00,
2013-11-24 15:57:00,28.8,2.7,30.43,SSE,160,9.0,18.0,32,0.00,,---,0.00,47.00,VWS V14.01,2013-11-24 21:57:00,
2013-11-24 16:00:00,28.8,3.3,30.43,SSE,163,12.0,19.0,33,0.00,,---,0.00,44.00,VWS V14.01,2013-11-24 22:00:00,
2013-11-24 16:02:00,28.8,2.0,30.43,SSE,167,5.0,17.0,31,0.00,,---,0.00,40.00,VWS V14.01,2013-11-24 22:02:00,
2013-11-24 16:07:00,29.0,2.2,30.43,SE,144,7.0,17.0,31,0.00,,---,0.00,39.00,VWS V14.01,2013-11-24 22:07:00,
2013-11-24 16:12:00,29.0,2.2,30.42,South,176,7.0,17.0,31,0.00,,---,0.00,30.00,VWS V14.01,2013-11-24 22:12:00,
2013-11-24 16:17:00,29.0,2.2,30.42,SE,146,12.0,17.0,31,0.00,,---,0.00,19.00,VWS V14.01,2013-11-24 22:17:00,
2013-11-24 16:22:00,28.8,2.0,30.41,SE,136,13.0,17.0,31,0.00,,---,0.00,25.00,VWS V14.01,2013-11-24 22:22:00,
2013-11-24 16:27:00,28.8,2.0,30.41,South,169,6.0,19.0,31,0.00,,---,0.00,25.00,VWS V14.01,2013-11-24 22:27:00,
2013-11-24 16:30:00,28.8,2.0,30.41,South,178,4.0,19.0,31,0.00,,---,0.00,23.00,VWS V14.01,2013-11-24 22:30:00,
2013-11-24 16:32:00,29.0,1.5,30.41,South,176,8.0,13.0,30,0.00,,---,0.00,21.00,VWS V14.01,2013-11-24 22:32:00,
2013-11-24 16:37:00,29.0,2.2,30.41,South,169,11.0,13.0,31,0.00,,---,0.00,19.00,VWS V14.01,2013-11-24 22:37:00,
2013-11-24 16:42:00,29.0,2.2,30.40,SE,140,12.0,16.0,31,0.00,,---,0.00,19.00,VWS V14.01,2013-11-24 22:42:00,
2013-11-24 16:47:00,28.8,1.3,30.40,SSE,162,12.0,18.0,30,0.00,,---,0.00,23.00,VWS V14.01,2013-11-24 22:47:00,
2013-11-24 16:52:00,29.0,2.2,30.41,South,184,12.0,18.0,31,0.00,,---,0.00,18.00,VWS V14.01,2013-11-24 22:52:00,
2013-11-24 16:57:00,29.0,2.2,30.40,SSE,157,10.0,18.0,31,0.00,,---,0.00,14.00,VWS V14.01,2013-11-24 22:57:00,
2013-11-24 17:00:00,29.0,2.2,30.40,SSE,147,15.0,18.0,31,0.00,,---,0.00,12.00,VWS V14.01,2013-11-24 23:00:00,
2013-11-24 17:02:00,28.8,2.0,30.40,South,177,9.0,17.0,31,0.00,,---,0.00,11.00,VWS V14.01,2013-11-24 23:02:00,
2013-11-24 17:07:00,28.8,2.0,30.40,South,170,12.0,17.0,31,0.00,,---,0.00,7.00,VWS V14.01,2013-11-24 23:07:00,
2013-11-24 17:12:00,28.8,2.0,30.40,South,183,10.0,17.0,31,0.00,,---,0.00,0.00,VWS V14.01,2013-11-24 23:12:00,
2013-11-24 17:17:00,28.7,1.2,30.40,SSE,159,12.0,17.0,30,0.00,,---,0.00,0.00,VWS V14.01,2013-11-24 23:17:00,
2013-11-24 17:22:00,28.7,1.9,30.40,SSW,193,12.0,19.0,31,0.00,,---,0.00,0.00,VWS V14.01,2013-11-24 23:22:00,
2013-11-24 17:27:00,28.7,1.2,30.40,South,174,13.0,19.0,30,0.00,,---,0.00,0.00,VWS V14.01,2013-11-24 23:27:00,
2013-11-24 17:30:00,28.7,1.2,30.40,South,173,18.0,20.0,30,0.00,,---,0.00,0.00,VWS V14.01,2013-11-24 23:30:00,
2013-11-24 17:32:00,28.7,1.9,30.40,South,181,11.0,18.0,31,0.00,,---,0.00,0.00,VWS V14.01,2013-11-24 23:32:00,
2013-11-24 17:37:00,28.7,1.9,30.39,South,182,14.0,18.0,31,0.00,,---,0.00,0.00,VWS V14.01,2013-11-24 23:37:00,
2013-11-24 17:43:00,28.7,1.2,30.39,SSE,165,7.0,20.0,30,0.00,,---,0.00,0.00,VWS V14.01,2013-11-24 23:43:00,
2013-11-24 17:48:00,28.7,1.9,30.39,SSE,161,12.0,20.0,31,0.00,,---,0.00,0.00,VWS V14.01,2013-11-24 23:48:00,
2013-11-24 17:53:00,28.7,1.9,30.38,SSE,166,14.0,20.0,31,0.00,,---,0.00,0.00,VWS V14.01,2013-11-24 23:53:00,
2013-11-24 17:58:00,28.5,2.4,30.38,SSW,194,17.0,20.0,32,0.00,,---,0.00,0.00,VWS V14.01,2013-11-24 23:58:00,
2013-11-24 18:00:00,28.5,2.4,30.38,SSE,152,4.0,20.0,32,0.00,,---,0.00,0.00,VWS V14.01,2013-11-25 00:00:00,
2013-11-24 18:03:00,28.5,2.4,30.38,South,175,12.0,18.0,32,0.00,,---,0.00,0.00,VWS V14.01,2013-11-25 00:03:00,
2013-11-24 18:08:00,28.5,3.1,30.38,SSE,158,6.0,18.0,33,0.00,,---,0.00,0.00,VWS V14.01,2013-11-25 00:08:00,
2013-11-24 18:13:00,28.5,3.1,30.38,South,171,13.0,18.0,33,0.00,,---,0.00,0.00,VWS V14.01,2013-11-25 00:13:00,
2013-11-24 18:18:00,28.4,3.0,30.38,SSE,150,9.0,18.0,33,0.00,,---,0.00,0.00,VWS V14.01,2013-11-25 00:18:00,
2013-11-24 18:23:00,28.4,3.6,30.37,SSE,164,12.0,18.0,34,0.00,,---,0.00,0.00,VWS V14.01,2013-11-25 00:23:00,
2013-11-24 18:27:00,28.4,3.6,30.37,SSE,161,13.0,18.0,34,0.00,,---,0.00,0.00,VWS V14.01,2013-11-25 00:27:00,
2013-11-24 18:30:00,28.4,3.0,30.37,SSW,194,8.0,18.0,33,0.00,,---,0.00,0.00,VWS V14.01,2013-11-25 00:30:00,
2013-11-24 18:33:00,28.2,2.8,30.37,South,174,9.0,16.0,33,0.00,,---,0.00,0.00,VWS V14.01,2013-11-25 00:33:00,
2013-11-24 18:38:00,28.2,2.8,30.36,South,189,16.0,19.0,33,0.00,,---,0.00,0.00,VWS V14.01,2013-11-25 00:38:00,
2013-11-24 18:43:00,28.1,2.7,30.36,SSW,202,9.0,21.0,33,0.00,,---,0.00,0.00,VWS V14.01,2013-11-25 00:43:00,
2013-11-24 18:48:00,28.1,4.0,30.36,SSE,165,9.0,21.0,35,0.00,,---,0.00,0.00,VWS V14.01,2013-11-25 00:48:00,
2013-11-24 18:53:00,27.9,3.2,30.36,South,186,9.0,21.0,34,0.00,,---,0.00,0.00,VWS V14.01,2013-11-25 00:53:00,
2013-11-24 18:58:00,27.9,3.8,30.36,South,173,16.0,21.0,35,0.00,,---,0.00,0.00,VWS V14.01,2013-11-25 00:58:00,
2013-11-24 19:00:00,27.9,3.8,30.36,SSW,194,11.0,21.0,35,0.00,,---,0.00,0.00,VWS V14.01,2013-11-25 01:00:00,
2013-11-24 19:03:00,27.8,3.7,30.35,South,175,9.0,15.0,35,0.00,,---,0.00,0.00,VWS V14.01,2013-11-25 01:03:00,
2013-11-24 19:08:00,27.8,4.3,30.35,South,175,9.0,15.0,36,0.00,,---,0.00,0.00,VWS V14.01,2013-11-25 01:08:00,
2013-11-24 19:13:00,27.6,3.5,30.35,SSW,202,9.0,19.0,35,0.00,,---,0.00,0.00,VWS V14.01,2013-11-25 01:13:00,
2013-11-24 19:18:00,27.6,4.2,30.35,SSE,155,5.0,19.0,36,0.00,,---,0.00,0.00,VWS V14.01,2013-11-25 01:18:00,
2013-11-24 19:23:00,27.6,4.2,30.35,SSW,202,4.0,19.0,36,0.00,,---,0.00,0.00,VWS V14.01,2013-11-25 01:23:00,
2013-11-24 19:28:00,27.8,4.9,30.34,SW,215,5.0,19.0,37,0.00,,---,0.00,0.00,VWS V14.01,2013-11-25 01:28:00,
2013-11-24 19:30:00,27.8,4.9,30.34,South,186,3.0,19.0,37,0.00,,---,0.00,0.00,VWS V14.01,2013-11-25 01:30:00,
2013-11-24 19:33:00,27.8,4.9,30.34,SSE,163,7.0,12.0,37,0.00,,---,0.00,0.00,VWS V14.01,2013-11-25 01:33:00,
2013-11-24 19:38:00,27.8,4.9,30.34,South,178,5.0,12.0,37,0.00,,---,0.00,0.00,VWS V14.01,2013-11-25 01:38:00,
2013-11-24 19:43:00,27.8,4.9,30.34,SSW,193,3.0,12.0,37,0.00,,---,0.00,0.00,VWS V14.01,2013-11-25 01:43:00,
2013-11-24 19:48:00,27.8,4.3,30.33,South,188,9.0,17.0,36,0.00,,---,0.00,0.00,VWS V14.01,2013-11-25 01:48:00,
2013-11-24 19:53:00,27.8,4.9,30.33,SSE,154,7.0,17.0,37,0.00,,---,0.00,0.00,VWS V14.01,2013-11-25 01:53:00,
2013-11-24 19:58:00,27.8,4.9,30.33,SW,227,7.0,17.0,37,0.00,,---,0.00,0.00,VWS V14.01,2013-11-25 01:58:00,
2013-11-24 20:00:00,27.8,4.9,30.33,SSE,159,13.0,17.0,37,0.00,,---,0.00,0.00,VWS V14.01,2013-11-25 02:00:00,
2013-11-24 20:03:00,27.8,4.9,30.33,South,173,16.0,18.0,37,0.00,,---,0.00,0.00,VWS V14.01,2013-11-25 02:03:00,
2013-11-24 20:08:00,27.8,5.5,30.33,SSE,158,8.0,18.0,38,0.00,,---,0.00,0.00,VWS V14.01,2013-11-25 02:08:00,
2013-11-24 20:13:00,27.8,5.5,30.33,SSW,196,12.0,19.0,38,0.00,,---,0.00,0.00,VWS V14.01,2013-11-25 02:13:00,
2013-11-24 20:18:00,27.8,5.5,30.33,SSE,157,6.0,19.0,38,0.00,,---,0.00,0.00,VWS V14.01,2013-11-25 02:18:00,
2013-11-24 20:23:00,27.8,6.1,30.32,SSW,205,2.0,19.0,39,0.00,,---,0.00,0.00,VWS V14.01,2013-11-25 02:23:00,
2013-11-24 20:28:00,27.8,6.1,30.32,South,182,5.0,19.0,39,0.00,,---,0.00,0.00,VWS V14.01,2013-11-25 02:28:00,
2013-11-24 20:30:00,27.8,6.6,30.32,South,181,9.0,19.0,40,0.00,,---,0.00,0.00,VWS V14.01,2013-11-25 02:30:00,
2013-11-24 20:33:00,27.8,6.6,30.32,South,178,7.0,16.0,40,0.00,,---,0.00,0.00,VWS V14.01,2013-11-25 02:33:00,
2013-11-24 20:38:00,27.8,7.2,30.32,SSE,165,9.0,16.0,41,0.00,,---,0.00,0.00,VWS V14.01,2013-11-25 02:38:00,
2013-11-24 20:43:00,27.9,7.3,30.32,SSW,200,4.0,16.0,41,0.00,,---,0.00,0.00,VWS V14.01,2013-11-25 02:43:00,
2013-11-24 20:48:00,27.9,7.3,30.32,South,181,13.0,16.0,41,0.00,,---,0.00,0.00,VWS V14.01,2013-11-25 02:48:00,
2013-11-24 20:53:00,27.8,7.7,30.31,South,183,12.0,18.0,42,0.00,,---,0.00,0.00,VWS V14.01,2013-11-25 02:53:00,
2013-11-24 20:58:00,27.8,8.2,30.31,SSW,209,5.0,20.0,43,0.00,,---,0.00,0.00,VWS V14.01,2013-11-25 02:58:00,
2013-11-24 21:00:00,27.8,8.2,30.31,SSW,205,10.0,20.0,43,0.00,,---,0.00,0.00,VWS V14.01,2013-11-25 03:00:00,
2013-11-24 21:03:00,27.8,8.7,30.31,SW,214,16.0,19.0,44,0.00,,---,0.00,0.00,VWS V14.01,2013-11-25 03:03:00,
2013-11-24 21:08:00,27.8,9.2,30.31,SSW,193,7.0,22.0,45,0.00,,---,0.00,0.00,VWS V14.01,2013-11-25 03:08:00,
2013-11-24 21:13:00,27.8,9.7,30.30,SSE,160,12.0,22.0,46,0.00,,---,0.00,0.00,VWS V14.01,2013-11-25 03:13:00,
2013-11-24 21:18:00,27.8,10.2,30.30,SW,216,4.0,22.0,47,0.00,,---,0.00,0.00,VWS V14.01,2013-11-25 03:18:00,
2013-11-24 21:23:00,27.6,10.9,30.30,SSE,167,13.0,22.0,49,0.00,,---,0.00,0.00,VWS V14.01,2013-11-25 03:23:00,
2013-11-24 21:28:00,27.6,11.9,30.30,SSW,198,10.0,22.0,51,0.00,,---,0.00,0.00,VWS V14.01,2013-11-25 03:28:00,
2013-11-24 21:30:00,27.6,11.9,30.30,South,175,4.0,22.0,51,0.00,,---,0.00,0.00,VWS V14.01,2013-11-25 03:30:00,
2013-11-24 21:33:00,27.6,12.3,30.30,SW,223,8.0,17.0,52,0.00,,---,0.00,0.00,VWS V14.01,2013-11-25 03:33:00,
2013-11-24 21:38:00,27.5,12.2,30.30,SSW,196,16.0,17.0,52,0.00,,---,0.00,0.00,VWS V14.01,2013-11-25 03:38:00,
2013-11-24 21:43:00,27.5,12.2,30.29,South,173,11.0,17.0,52,0.00,,---,0.00,0.00,VWS V14.01,2013-11-25 03:43:00,
2013-11-24 21:48:00,27.3,12.0,30.29,South,190,16.0,18.0,52,0.00,,---,0.00,0.00,VWS V14.01,2013-11-25 03:48:00,
2013-11-24 21:53:00,27.2,12.4,30.29,South,178,9.0,18.0,53,0.00,,---,0.00,0.00,VWS V14.01,2013-11-25 03:53:00,
2013-11-24 21:58:00,27.0,12.2,30.29,South,178,7.0,18.0,53,0.00,,---,0.00,0.00,VWS V14.01,2013-11-25 03:58:00,
2013-11-24 22:00:00,27.0,12.2,30.29,South,175,10.0,18.0,53,0.00,,---,0.00,0.00,VWS V14.01,2013-11-25 04:00:00,
2013-11-24 22:03:00,27.0,12.2,30.29,South,173,10.0,13.0,53,0.00,,---,0.00,0.00,VWS V14.01,2013-11-25 04:03:00,
2013-11-24 22:08:00,26.9,12.5,30.29,SSW,202,7.0,13.0,54,0.00,,---,0.00,0.00,VWS V14.01,2013-11-25 04:08:00,
2013-11-24 22:13:00,27.0,12.6,30.29,South,181,15.0,15.0,54,0.00,,---,0.00,0.00,VWS V14.01,2013-11-25 04:13:00,
2013-11-24 22:18:00,27.0,12.6,30.29,SSE,152,4.0,15.0,54,0.00,,---,0.00,0.00,VWS V14.01,2013-11-25 04:18:00,
2013-11-24 22:23:00,27.0,13.0,30.29,South,182,4.0,15.0,55,0.00,,---,0.00,0.00,VWS V14.01,2013-11-25 04:23:00,
2013-11-24 22:28:00,27.0,13.0,30.29,South,176,11.0,15.0,55,0.00,,---,0.00,0.00,VWS V14.01,2013-11-25 04:28:00,
2013-11-24 22:30:00,27.0,13.0,30.29,SSE,157,11.0,15.0,55,0.00,,---,0.00,0.00,VWS V14.01,2013-11-25 04:30:00,
2013-11-24 22:33:00,27.0,13.4,30.29,South,173,10.0,14.0,56,0.00,,---,0.00,0.00,VWS V14.01,2013-11-25 04:33:00,
2013-11-24 22:38:00,27.0,13.4,30.29,South,175,12.0,14.0,56,0.00,,---,0.00,0.00,VWS V14.01,2013-11-25 04:38:00,
2013-11-24 22:43:00,27.2,14.0,30.30,South,174,2.0,14.0,57,0.00,,---,0.00,0.00,VWS V14.01,2013-11-25 04:43:00,
2013-11-24 22:48:00,27.2,13.6,30.30,South,182,7.0,15.0,56,0.00,,---,0.00,0.00,VWS V14.01,2013-11-25 04:48:00,
2013-11-24 22:53:00,27.0,13.8,30.30,South,186,11.0,15.0,57,0.00,,---,0.00,0.00,VWS V14.01,2013-11-25 04:53:00,
2013-11-24 22:58:00,27.0,13.8,30.30,SSW,195,5.0,15.0,57,0.00,,---,0.00,0.00,VWS V14.01,2013-11-25 04:58:00,
2013-11-24 23:00:00,27.0,13.8,30.30,South,175,6.0,15.0,57,0.00,,---,0.00,0.00,VWS V14.01,2013-11-25 05:00:00,
2013-11-24 23:01:00,27.0,13.8,30.29,SSW,202,5.0,7.0,57,0.00,,---,0.00,0.00,VWS V14.01,2013-11-25 05:01:00,
2013-11-24 23:06:00,27.0,13.4,30.29,ESE,118,6.0,16.0,56,0.00,,---,0.00,0.00,VWS V14.01,2013-11-25 05:06:00,
2013-11-24 23:11:00,27.0,13.8,30.29,SSE,160,4.0,16.0,57,0.00,,---,0.00,0.00,VWS V14.01,2013-11-25 05:11:00,
2013-11-24 23:16:00,27.0,13.4,30.29,SSE,164,7.0,16.0,56,0.00,,---,0.00,0.00,VWS V14.01,2013-11-25 05:16:00,
2013-11-24 23:21:00,27.2,14.0,30.29,SSW,192,7.0,16.0,57,0.00,,---,0.00,0.00,VWS V14.01,2013-11-25 05:21:00,
2013-11-24 23:26:00,27.2,13.6,30.29,South,188,6.0,16.0,56,0.00,,---,0.00,0.00,VWS V14.01,2013-11-25 05:26:00,
2013-11-24 23:30:00,27.2,13.6,30.29,South,175,1.0,16.0,56,0.00,,---,0.00,0.00,VWS V14.01,2013-11-25 05:30:00,
2013-11-24 23:31:00,27.2,13.6,30.28,South,185,7.0,11.0,56,0.00,,---,0.00,0.00,VWS V14.01,2013-11-25 05:31:00,
2013-11-24 23:36:00,27.2,13.2,30.28,South,181,14.0,14.0,55,0.00,,---,0.00,0.00,VWS V14.01,2013-11-25 05:36:00,
2013-11-24 23:41:00,27.3,12.9,30.28,SSE,155,12.0,17.0,54,0.00,,---,0.00,0.00,VWS V14.01,2013-11-25 05:41:00,
2013-11-24 23:46:00,27.3,12.9,30.28,SSW,213,9.0,17.0,54,0.00,,---,0.00,0.00,VWS V14.01,2013-11-25 05:46:00,
2013-11-24 23:51:00,27.3,12.4,30.28,SSE,159,10.0,17.0,53,0.00,,---,0.00,0.00,VWS V14.01,2013-11-25 05:51:00,
2013-11-24 23:56:00,27.2,12.4,30.27,South,174,13.0,17.0,53,0.00,,---,0.00,0.00,VWS V14.01,2013-11-25 05:56:00,